Location: Moscow Pond
(43.6842°N, 73.2366°W)
Time: 21:53:24
(UTC+00:00)

NOSS 3-1 (A) - Pass Details

Date: 08 November 2025
Orbit: 621 x 1586 km, 63.4° (Epoch: 02 December)

Event Time Altitude Azimuth Distance (km) Brightness Sun altitude
Exits shadow 10:29:42 - 232° (SW) 2,377 5.2 -12.7°
Reaches altitude 10° 10:30:28 10° 234° (SW) 2,078 4.9 -12.6°
Maximum altitude 10:35:02 55° 313° (NW) 881 3.0 -11.8°
Drops below altitude 10° 10:40:33 10° 31° (NNE) 2,503 5.9 -10.8°
Sets 10:43:23 0° 36° (NE) 3,597 6.8 -10.3°
